カタログに戻る

THORAD DELTA 1 DEB

運用中SSO
NORAD 8403·DEBRIS·🇺🇸 United States

打ち上げ Nov 15, 1974 から Vandenberg Space Force Base

Loading…

次のパス (今後24時間)

TLE

最新Source: Space-Track

元期: Sep 13, 2026, 05:20 UTC

1  8403U 74089CF  26256.22291561  .00000108  00000-0  10295-2 0  9990
2  8403 101.5468 351.6424 0055740 230.3348 158.3786 12.47085334360476

AllMySatでTHORAD DELTA 1 DEBをリアルタイム追跡

Download on the App Store